Hot Springs, VA

7:59 PM EDT on May 29, 2017 (GMT -0400)
Ingalls

Weather History for KHSP - January, 2013

Change the Weather History Date:

Friday, January 11, 2013

  Actual Average Record
Temperature  
Mean Temperature 42 °F -  
Max Temperature 51 °F 33 °F 51 °F (2006)
Min Temperature 33 °F 19 °F -4 °F (1997)
Degree Days  
Heating Degree Days 23    
Moisture  
Dew Point 40 °F    
Average Humidity 91    
Maximum Humidity 100    
Minimum Humidity 70    
Precipitation  
Precipitation 0.07 in - - ()
Sea Level Pressure  
Sea Level Pressure 30.24 in    
Wind  
Wind Speed 12 mph (South)    
Max Wind Speed 23 mph    
Max Gust Speed 36 mph    
Visibility 7 miles    
Events Fog , Rain , Snow    
Averages and records for this station are not official NWS values.
T = Trace of Precipitation, MM = Missing Value Source: NWS Daily Summary

Daily Weather History Graph

Daily Weather History Graph

Search for Another Location

Airport or City:

Trip Planner

Search our weather history database for the weather conditions in past years. The results will help you decide how hot, cold, wet, or windy it might be!

Date:

Astronomy

Jan. 11, 2013 Rise Set
Actual Time 7:34 AM EST 5:20 PM EST
Civil Twilight 7:06 AM EST 5:49 PM EST
Nautical Twilight 6:33 AM EST 6:21 PM EST
Astronomical Twilight 6:01 AM EST 6:53 PM EST
Moon 7:07 AM EST (1/11) 5:35 PM EST (1/11)
Length of Visible Light 10h 43m
Length of Day
9h 45m
Waning Crescent, 0% of the Moon is Illuminated
Jan 11
Waning Crescent
Jan 11
New
Jan 18
First Quarter
Jan 26
Full
Feb 3
Last Quarter

Hourly Weather History & Observations

Time (EST) Temp. Windchill Dew Point Humidity Pressure Visibility Wind Dir Wind Speed Gust Speed Precip Events Conditions
12:15 AM 39.2 °F 33.0 °F 30.2 °F 70% 30.40 in 10.0 mi SSE 9.2 mph - N/A   Scattered Clouds
12:35 AM 39.2 °F 31.6 °F 30.2 °F 70% 30.40 in 10.0 mi SSE 12.7 mph 18.4 mph N/A   Scattered Clouds
12:55 AM 39.2 °F 32.5 °F 30.2 °F 70% 30.39 in 10.0 mi SE 10.4 mph 16.1 mph N/A   Mostly Cloudy
1:15 AM 39.2 °F 31.6 °F 30.2 °F 70% 30.38 in 10.0 mi SSE 12.7 mph - N/A   Scattered Clouds
1:35 AM 39.2 °F 33.0 °F 30.2 °F 70% 30.38 in 10.0 mi SSE 9.2 mph - N/A   Scattered Clouds
1:55 AM 39.2 °F 32.5 °F 30.2 °F 70% 30.37 in 10.0 mi SSE 10.4 mph - N/A   Mostly Cloudy
2:15 AM 39.2 °F 33.0 °F 30.2 °F 70% 30.38 in 10.0 mi SE 9.2 mph 17.3 mph N/A   Overcast
2:35 AM 39.2 °F 32.0 °F 30.2 °F 70% 30.37 in 10.0 mi SE 11.5 mph 16.1 mph N/A   Mostly Cloudy
2:55 AM 37.4 °F 29.8 °F 30.2 °F 75% 30.37 in 10.0 mi SE 11.5 mph - N/A   Mostly Cloudy
3:15 AM 37.4 °F 30.8 °F 30.2 °F 75% 30.36 in 10.0 mi SE 9.2 mph - N/A   Overcast
3:35 AM 37.4 °F 32.1 °F 30.2 °F 75% 30.37 in 10.0 mi SE 6.9 mph - N/A   Overcast
3:55 AM 37.4 °F 31.4 °F 30.2 °F 75% 30.36 in 10.0 mi ESE 8.1 mph - N/A   Overcast
4:15 AM 37.4 °F 32.1 °F 30.2 °F 75% 30.36 in 10.0 mi SE 6.9 mph - N/A   Overcast
4:35 AM 37.4 °F 29.8 °F 28.4 °F 70% 30.35 in 10.0 mi SE 11.5 mph - N/A   Overcast
4:55 AM 35.6 °F 28.6 °F 28.4 °F 75% 30.34 in 10.0 mi SE 9.2 mph - N/A   Overcast
5:15 AM 35.6 °F 29.2 °F 30.2 °F 81% 30.33 in 10.0 mi SSE 8.1 mph 16.1 mph N/A   Overcast
5:35 AM 37.4 °F 30.8 °F 30.2 °F 75% 30.33 in 10.0 mi SE 9.2 mph - N/A   Overcast
5:55 AM 37.4 °F 29.8 °F 30.2 °F 75% 30.33 in 7.0 mi SSE 11.5 mph - N/A   Overcast
6:15 AM 35.6 °F 27.1 °F 30.2 °F 81% 30.31 in 10.0 mi SE 12.7 mph 18.4 mph N/A   Overcast
6:55 AM 35.6 °F 27.1 °F 30.2 °F 81% 30.31 in 10.0 mi SE 12.7 mph - N/A   Overcast
7:15 AM 35.6 °F 29.9 °F 30.2 °F 81% 30.33 in 10.0 mi SSE 6.9 mph - N/A   Overcast
7:35 AM 35.6 °F 27.1 °F 30.2 °F 81% 30.31 in 10.0 mi SSE 12.7 mph 17.3 mph N/A   Overcast
7:55 AM 35.6 °F 29.9 °F 30.2 °F 81% 30.33 in 10.0 mi SSE 6.9 mph - N/A   Drizzle
8:15 AM 33.8 °F 26.4 °F 30.2 °F 87% 30.30 in 10.0 mi SE 9.2 mph - N/A   Drizzle
8:35 AM 33.8 °F 27.7 °F 30.2 °F 87% 30.31 in 10.0 mi SSE 6.9 mph - 0.01 in Rain Light Rain
8:55 AM 35.6 °F 29.9 °F 35.6 °F 100% 30.30 in 4.0 mi South 6.9 mph - 0.01 in Rain Rain
9:15 AM 37.4 °F 30.8 °F 37.4 °F 100% 30.30 in 4.0 mi South 9.2 mph 17.3 mph 0.03 in Rain Light Rain
9:35 AM 39.2 °F 32.5 °F 37.4 °F 93% 30.29 in 0.8 mi SSE 10.4 mph - 0.04 in Rain Light Rain
9:55 AM 37.4 °F 31.4 °F 37.4 °F 100% 30.28 in 0.2 mi South 8.1 mph 11.5 mph N/A Snow Light Snow
10:15 AM 37.4 °F 30.8 °F 37.4 °F 100% 30.27 in 0.2 mi SSE 9.2 mph 18.4 mph 0.01 in Rain Light Rain
10:35 AM 37.4 °F 30.8 °F 37.4 °F 100% 30.26 in 0.2 mi South 9.2 mph - 0.01 in Rain Light Rain
10:55 AM 37.4 °F 29.8 °F 37.4 °F 100% 30.26 in 0.2 mi South 11.5 mph 17.3 mph N/A Snow Snow
11:15 AM 39.2 °F 31.6 °F 39.2 °F 100% 30.24 in 0.2 mi South 12.7 mph - N/A   Unknown
11:35 AM 39.2 °F 30.8 °F 39.2 °F 100% 30.22 in 0.2 mi SSE 15.0 mph 20.7 mph N/A   Unknown
11:55 AM 37.4 °F 28.9 °F 37.4 °F 100% 30.21 in 0.2 mi SSE 13.8 mph 18.4 mph N/A Snow Heavy Snow
11:56 AM 37.4 °F 28.9 °F 37.4 °F 100% 30.21 in 0.2 mi SSE 13.8 mph 18.4 mph N/A Snow Heavy Snow
12:15 PM 37.4 °F 29.3 °F 37.4 °F 100% 30.19 in 0.2 mi South 12.7 mph 20.7 mph N/A Snow Heavy Snow
12:35 PM 37.4 °F 29.8 °F 37.4 °F 100% 30.19 in 0.2 mi South 11.5 mph 18.4 mph N/A Snow Heavy Snow
12:55 PM 39.2 °F 32.0 °F 39.2 °F 100% 30.18 in 0.2 mi South 11.5 mph 16.1 mph N/A   Unknown
1:15 PM 42.8 °F 35.8 °F 42.8 °F 100% 30.17 in 0.2 mi SSW 13.8 mph 21.9 mph N/A   Unknown
1:35 PM 44.6 °F 36.6 °F 44.6 °F 100% 30.16 in 0.2 mi SSW 19.6 mph 31.1 mph N/A   Unknown
1:55 PM 48.2 °F - 48.2 °F 100% 30.15 in 0.5 mi SSW 20.7 mph 35.7 mph 0.01 in Rain Light Rain
2:15 PM - - - N/A% 30.14 in - SSW 20.7 mph - N/A   Unknown
2:55 PM 46.4 °F 39.5 °F 46.4 °F 100% 30.14 in 0.2 mi SSW 17.3 mph 27.6 mph N/A   Unknown
3:15 PM 46.4 °F 40.1 °F 46.4 °F 100% 30.14 in 0.2 mi SW 15.0 mph 24.2 mph N/A Fog Fog
3:35 PM 46.4 °F 41.5 °F 46.4 °F 100% 30.13 in 0.2 mi SSW 10.4 mph 23.0 mph N/A Fog Fog
3:55 PM 46.4 °F 40.1 °F 46.4 °F 100% 30.13 in 2.5 mi SW 15.0 mph 21.9 mph N/A   Overcast
4:15 PM 48.2 °F - 48.2 °F 100% 30.13 in 10.0 mi SW 18.4 mph 25.3 mph N/A   Mostly Cloudy
4:35 PM 48.2 °F - 48.2 °F 100% 30.13 in 10.0 mi SW 16.1 mph 20.7 mph N/A   Clear
4:55 PM 48.2 °F - 48.2 °F 100% 30.13 in 10.0 mi SW 15.0 mph 20.7 mph N/A   Clear
5:15 PM 48.2 °F - 48.2 °F 100% 30.13 in 10.0 mi SW 16.1 mph 21.9 mph N/A   Clear
5:35 PM 48.2 °F - 48.2 °F 100% 30.13 in 10.0 mi WSW 17.3 mph 27.6 mph N/A   Mostly Cloudy
5:55 PM 48.2 °F - 48.2 °F 100% 30.13 in 10.0 mi WSW 18.4 mph 25.3 mph N/A   Overcast
6:15 PM 51.8 °F - 50.0 °F 94% 30.13 in 10.0 mi WSW 23.0 mph 29.9 mph N/A   Mostly Cloudy
6:35 PM 51.8 °F - 50.0 °F 94% 30.14 in 10.0 mi WSW 19.6 mph 27.6 mph N/A   Mostly Cloudy
6:55 PM 50.0 °F - 48.2 °F 94% 30.14 in 10.0 mi WSW 17.3 mph 24.2 mph N/A   Scattered Clouds
7:15 PM 50.0 °F - 50.0 °F 100% 30.15 in 10.0 mi WSW 18.4 mph 21.9 mph N/A   Scattered Clouds
7:35 PM 50.0 °F - 50.0 °F 100% 30.15 in 10.0 mi WSW 19.6 mph 24.2 mph N/A   Scattered Clouds
7:55 PM 50.0 °F - 50.0 °F 100% 30.14 in 10.0 mi WSW 19.6 mph - N/A   Scattered Clouds
8:15 PM 50.0 °F - 50.0 °F 100% 30.14 in 10.0 mi WSW 20.7 mph 25.3 mph N/A   Scattered Clouds
8:35 PM 51.8 °F - 50.0 °F 94% 30.15 in 10.0 mi WSW 20.7 mph 24.2 mph N/A   Mostly Cloudy
8:55 PM 51.8 °F - 51.8 °F 100% 30.15 in 10.0 mi WSW 19.6 mph - N/A   Overcast
9:15 PM 50.0 °F - 50.0 °F 100% 30.14 in 10.0 mi West 18.4 mph - N/A   Overcast
9:35 PM 50.0 °F - 50.0 °F 100% 30.14 in 10.0 mi West 17.3 mph 24.2 mph N/A   Mostly Cloudy
9:55 PM 51.8 °F - 50.0 °F 94% 30.14 in 10.0 mi West 13.8 mph 24.2 mph N/A   Scattered Clouds
10:15 PM 50.0 °F - 50.0 °F 100% 30.15 in 10.0 mi West 12.7 mph 19.6 mph N/A   Scattered Clouds
10:35 PM 50.0 °F - 50.0 °F 100% 30.15 in 10.0 mi West 15.0 mph - N/A   Scattered Clouds
10:55 PM 50.0 °F - 50.0 °F 100% 30.15 in 10.0 mi West 15.0 mph - N/A   Scattered Clouds
11:15 PM 50.0 °F - 50.0 °F 100% 30.15 in 7.0 mi West 13.8 mph - N/A   Mostly Cloudy
11:35 PM 50.0 °F - 50.0 °F 100% 30.15 in 3.0 mi West 17.3 mph - N/A   Overcast
11:55 PM 51.8 °F - 51.8 °F 100% 30.15 in 1.0 mi West 16.1 mph - N/A   Overcast